Regional Weather Roundup
Issued by NWS

Home | Current Version | Previous Version | Graphics & Text | Print | Product List | Glossary On
Versions: 1 2 3 4 5 6 7 8 9 10 11 12 13 14 15 16 17 18 19 20 21 22 23 24 25 26 27 28 29 30 31 32 33 34 35 36 37 38 39 40 41 42 43 44 45 46 47 48 49 50
820
ASUS43 KBIS 280410
RWRND

NORTH DAKOTA REGIONAL WEATHER ROUNDUP
NATIONAL WEATHER SERVICE BISMARCK ND
1000 PM CST MON FEB 27 2017

NOTE: "FAIR" INDICATES FEW OR NO CLOUDS BELOW 12,000 FEET WITH NO
SIGNIFICANT WEATHER AND/OR OBSTRUCTIONS TO VISIBILITY.


NDZ001>003-009>011-017-280500-
NORTHWEST NORTH DAKOTA

CITY           SKY/WX    TMP DP  RH WIND       PRES   REMARKS
WILLISTON      FAIR       7   3  84 NE5       29.84F WCI  -2
MINOT          FAIR       3  -1  83 NW6       29.90R WCI  -8
MINOT AFB      CLEAR     -2  -6  83 NW3       29.89S
$$

NDZ018>021-031>035-040>046-280500-
SOUTHWEST NORTH DAKOTA

CITY           SKY/WX    TMP DP  RH WIND       PRES   REMARKS
BISMARCK       CLOUDY    20  16  84 N7        29.86R WCI  11
DICKINSON      CLOUDY    14  11  87 E7        29.76F WCI   4
GARRISON         N/A     -2  -5  87 N7        29.86R WCI -15
HETTINGER ARPT CLOUDY    19  15  84 E14       29.78R WCI   6
$$

NDZ004>008-012>016-024-026-027-054-280500-
NORTHEAST NORTH DAKOTA

CITY           SKY/WX    TMP DP  RH WIND       PRES   REMARKS
GRAND FORKS    CLOUDY    17  10  74 N18       29.93S WCI   1
GRND FRKS AFB  CLOUDY    14  10  85 N15       29.94R WCI  -1
DEVILS LAKE    FLURRIES  12   9  87 E10       29.90S WCI  -1
$$

NDZ022-023-025-028>030-036>039-047>053-280500-
SOUTHEAST NORTH DAKOTA

CITY           SKY/WX    TMP DP  RH WIND       PRES   REMARKS
FARGO          CLOUDY    26  22  84 N17       29.86R WCI  13
JAMESTOWN      CLOUDY    22  18  85 NE12      29.84S WCI  10
$$





USA.gov is the U.S. government's official web portal to all federal, state and local government web resources and services.